Temperature
10 12 12 11 11 12 12 12 12 12 11 11 12 12 13 12 11 11 11 11 11 11 10 11 11 11 11 11 11 11 12 11 11 12 11 11 11 11 11 11 11 11 11 11
12 11 10 10 10 11 11 12 12 11 11 11 11 12 13 12 11 11 11 11 11 10 10 10 10 11 11 11 11 11 11 11 11 11 11 11 11 11 11 11 11 11 11 11
12 11 10 10 10 11 11 12 11 11 11 11 11 13 13 12 11 10 10 10 10 10 10 10 10 10 11 11 11 11 11 11 11 11 11 11 10 10 10 10 10 10 10 10
11 10 10 10 10 11 11 10 10 10 12 12 11 13 14 12 12 11 11 10 10 10 10 10 10 10 10 11 11 11 11 11 10 10 10 10 10 10 10 10 10 10 10 10
10 9 10 10 10 10 10 9 10 10 11 12 12 12 14 12 12 12 12 11 10 9 9 10 10 10 10 10 10 10 10 10 10 10 10 10 10 10 9 9 9 9 9 10
9 8 9 9 9 9 9 10 10 10 11 12 11 12 14 13 13 12 12 10 10 9 9 10 10 10 10 10 10 10 10 10 10 10 10 10 9 9 9 9 9 9 9 9
10 9 9 8 10 9 10 11 12 12 12 13 10 11 13 13 12 12 11 10 9 9 9 9 10 10 10 10 10 10 10 9 9 9 9 9 9 9 9 9 9 9 8 8
11 11 9 9 9 10 10 11 12 12 13 13 11 11 14 12 10 10 10 9 9 9 9 9 9 10 10 10 10 10 9 9 9 9 9 9 9 9 8 8 8 8 8 8
11 11 8 8 8 9 10 10 10 11 10 11 13 12 13 11 11 10 10 9 9 8 8 9 9 9 10 10 9 9 9 9 9 9 8 8 8 8 8 8 8 8 8 8
10 9 9 8 8 8 9 10 10 10 11 12 13 13 14 12 12 11 10 10 9 8 8 8 9 9 9 9 9 9 9 9 9 8 8 8 8 8 8 8 7 7 7 7
9 9 9 8 9 9 8 8 9 10 10 11 12 14 13 12 12 11 11 10 9 8 8 8 8 9 9 9 9 8 8 8 8 8 8 8 8 7 7 7 7 7 7 7
8 9 9 9 8 7 8 9 9 10 10 9 11 13 12 11 10 10 10 9 8 8 8 8 8 8 8 8 8 8 8 8 8 8 8 7 7 7 7 7 7 7 7 7
7 8 9 10 8 7 7 8 8 9 9 9 10 12 10 9 9 8 8 8 8 8 8 8 8 8 8 8 8 8 8 8 7 7 7 7 7 7 7 6 6 6 6 6
7 8 9 10 10 9 8 7 7 7 8 9 9 11 11 10 10 9 8 8 8 8 7 7 7 7 7 7 7 7 7 7 7 7 7 7 7 6 6 6 6 6 6 5
7 7 7 8 7 7 8 8 7 7 8 8 10 10 11 11 10 9 8 8 7 7 7 7 7 7 7 7 7 7 7 7 7 7 7 6 6 6 6 6 5 5 5 5
6 6 6 6 6 6 6 7 7 7 8 8 8 9 10 9 8 8 7 7 7 7 6 6 7 7 7 6 6 6 7 6 6 6 6 6 6 5 5 5 5 5 5 5
5 6 6 7 6 5 6 8 7 7 7 8 8 9 9 8 7 7 7 6 6 6 6 6 6 6 6 6 6 6 6 6 6 6 6 5 5 5 5 5 5 4 4 4
5 5 5 6 5 5 9 7 7 7 7 7 7 8 8 7 7 6 6 6 6 6 6 6 6 6 6 6 6 5 5 5 5 5 5 5 5 5 5 4 4 4 4 4
5 5 5 5 6 7 8 7 6 6 7 7 6 7 6 5 5 6 6 6 6 6 6 5 6 5 5 5 5 5 5 5 5 5 5 4 4 4 4 4 4 4 4 4
3 4 5 5 5 6 9 6 5 6 7 6 5 6 5 5 6 7 6 5 5 5 5 5 5 5 5 5 5 4 4 4 4 4 4 4 4 4 4 4 3 3 3 3
3 3 4 5 5 7 7 5 5 6 7 5 5 5 4 5 6 5 5 5 5 5 5 5 5 4 4 4 4 4 4 4 4 4 3 3 3 3 3 3 3 3 3 3
4 4 4 4 4 6 6 4 5 7 5 4 4 4 4 4 4 4 4 4 4 4 4 4 4 4 4 4 4 3 3 3 3 3 3 3 3 3 3 3 3 2 2 2
4 5 5 5 6 6 4 5 5 4 4 4 4 4 4 4 4 4 4 4 4 4 4 4 3 3 3 3 3 3 3 3 3 3 3 3 2 2 2 2 2 2 2 2
3 3 3 3 4 4 3 4 4 4 3 4 3 3 3 3 3 3 3 3 3 3 3 3 3 3 3 3 2 2 2 2 2 2 2 2 2 2 2 2 1 1 1 1
4 2 3 3 4 3 3 3 3 3 3 3 3 3 3 2 2 2 2 2 2 2 2 2 2 2 2 2 2 2 2 2 2 2 1 1 1 1 1 1 1 1 1 1
3 2 3 4 4 3 3 3 3 2 2 2 2 2 2 2 2 2 2 2 2 2 2 2 2 1 1 1 1 1 1 1 1 1 1 1 1 1 0 0 0 0 0 0
Wind_Speed
2 1 1 1 1 1 2 2 2 2 2 3 5 7 7 5 4 4 4 4 4 4 2 2 3 3 3 3 3 3 3 2 2 2 2 2 1 1 1 1 1 0 0 0
2 1 0 0 1 1 1 1 1 2 3 2 5 7 6 4 4 4 4 4 3 3 3 3 3 4 3 3 3 3 3 2 2 1 1 1 1 0 0 0 1 1 1 1
2 1 1 2 1 1 1 2 2 3 3 1 4 4 2 1 1 1 2 2 2 3 3 3 3 4 3 3 3 2 3 2 2 2 2 2 1 0 0 0 0 1 1 1
1 0 1 1 1 1 2 2 3 3 3 1 2 3 2 2 1 1 2 2 2 2 2 2 3 3 3 3 3 3 3 3 3 3 2 2 1 1 1 1 1 1 1 0
0 0 1 1 1 2 1 1 2 2 2 2 1 3 3 1 3 3 3 3 2 2 2 2 2 2 2 3 3 3 3 3 3 3 3 3 2 1 1 1 2 2 1 1
0 0 1 1 0 1 1 1 2 2 2 3 2 4 3 3 4 3 2 2 2 2 2 2 2 2 2 2 2 2 3 3 3 4 3 3 3 2 2 2 2 2 1 1
1 1 0 1 1 1 1 2 1 2 2 3 1 4 5 2 3 3 3 2 1 2 2 3 3 2 2 2 2 2 3 3 3 4 4 3 3 3 3 3 2 2 2 2
2 2 1 1 1 2 2 2 2 3 3 3 2 5 3 0 1 3 3 2 1 2 2 2 2 3 3 3 3 3 3 3 3 4 3 3 3 3 2 3 3 3 3 3
2 2 1 0 1 2 2 2 1 1 2 5 5 5 5 3 2 2 2 2 2 2 2 2 2 2 3 3 3 3 3 3 3 4 4 4 4 4 4 3 4 3 3 3
2 3 1 0 2 1 2 3 3 3 3 5 5 6 4 5 4 3 3 3 2 1 1 2 2 2 2 3 3 4 4 4 4 4 4 3 4 4 4 4 4 4 4 4
2 3 2 2 5 5 4 4 4 3 3 4 5 4 2 4 3 3 3 2 2 2 2 2 2 2 2 2 3 3 4 4 4 4 4 4 4 4 4 5 5 5 5 5
2 2 4 4 1 2 4 6 6 5 5 5 5 6 2 3 2 3 3 2 2 2 2 3 2 2 2 3 3 3 4 4 4 4 4 4 4 5 5 5 5 5 5 5
4 3 3 3 3 3 5 5 6 4 3 6 7 7 3 2 3 4 4 4 3 3 3 3 3 3 3 4 4 4 4 5 4 4 5 5 5 5 6 6 5 5 5 5
3 5 8 8 5 3 6 7 9 8 7 9 13 13 8 7 7 6 6 6 6 5 4 4 4 5 4 4 4 4 5 5 5 5 6 6 6 6 6 6 6 6 6 6
4 7 9 12 11 10 12 13 14 16 15 13 14 15 16 12 10 10 9 8 8 7 7 6 6 6 5 5 5 5 5 4 5 6 6 7 6 6 6 6 6 6 6 6
4 6 5 9 10 11 15 18 19 20 20 21 22 22 16 11 9 9 9 8 9 9 8 8 8 7 7 6 6 6 6 5 5 7 7 7 6 6 6 6 6 6 6 6
5 5 4 7 5 7 13 15 18 14 15 15 19 17 9 8 9 9 9 9 9 9 8 8 8 8 7 7 7 7 7 6 6 7 7 6 6 7 6 6 6 7 7 7
8 7 5 5 4 11 7 1 7 12 14 16 15 12 10 9 9 9 8 8 8 8 8 8 8 8 7 7 6 6 6 6 6 7 7 7 6 7 6 7 7 7 7 7
12 10 6 5 9 13 10 5 6 8 10 10 13 12 10 7 8 8 6 7 8 8 8 7 7 7 7 6 6 5 6 6 7 7 7 7 7 7 7 8 8 7 7 7
7 10 8 8 9 10 5 1 3 3 7 3 6 8 6 4 6 5 4 5 7 7 6 6 6 6 6 6 5 6 7 7 8 8 8 7 7 8 8 8 8 7 7 8
5 7 12 14 12 11 4 3 5 6 3 1 4 6 5 6 7 6 6 6 6 6 6 6 6 6 6 5 5 7 8 9 8 7 7 7 7 8 8 8 7 7 7 8
9 8 10 9 11 10 3 5 6 5 4 4 5 6 7 8 7 7 6 7 7 7 7 6 6 7 6 5 6 8 9 8 7 7 7 8 8 7 6 7 7 7 7 8
9 9 6 9 9 4 3 5 6 6 6 6 6 6 7 7 8 8 8 8 8 8 8 7 7 8 7 6 7 9 9 7 7 7 8 8 7 7 7 7 7 7 7 7
6 5 6 8 10 9 9 9 8 8 8 8 8 9 8 9 9 9 8 8 8 8 8 7 7 8 8 8 8 9 8 7 7 8 9 8 8 8 7 7 6 7 7 7
9 6 8 12 11 10 10 9 9 9 9 11 11 10 10 10 10 10 9 9 9 8 8 7 8 9 10 9 9 8 8 7 8 9 9 8 8 7 7 7 7 8 9 9
10 10 10 12 10 9 11 9 9 10 11 11 11 10 9 9 10 10 9 9 9 9 8 8 8 9 9 9 9 9 8 7 8 8 8 7 7 6 6 7 7 9 11 12
Wind_Direction
23 107 110 284 277 289 231 213 267 311 347 284 269 281 284 284 262 249 241 229 216 214 195 162 156 151 152 144 141 132 120 113 123 128 144 151 146 129 124 105 72 27 355 276
141 117 329 306 176 192 211 237 312 337 354 304 292 287 284 275 255 249 242 228 209 190 171 151 152 159 162 157 153 146 143 136 135 131 131 123 117 93 78 137 107 47 24 23
157 62 234 164 120 33 309 281 301 311 319 246 300 276 243 283 270 257 246 235 204 198 191 170 166 169 161 161 162 149 150 148 145 122 113 113 98 67 289 253 31 352 350 22
101 14 190 179 300 280 273 313 292 293 295 292 322 280 251 242 258 232 207 202 203 201 201 185 172 170 169 160 152 159 156 153 149 143 153 167 189 247 292 307 306 312 308 311
158 119 218 227 278 267 272 310 264 260 263 271 251 253 266 219 228 220 216 213 215 202 196 182 181 178 163 147 151 166 164 162 160 162 167 175 189 216 252 282 293 296 298 303
17 249 269 258 340 215 222 215 205 214 225 245 244 241 260 214 220 222 208 210 215 201 186 175 170 166 153 142 152 167 170 172 174 177 181 191 198 205 222 248 273 284 282 286
217 181 149 221 183 158 249 252 270 243 236 249 149 247 255 232 221 236 227 218 212 186 179 179 181 179 171 167 171 184 189 189 189 188 189 198 207 214 229 246 255 263 268 274
235 226 179 189 240 237 225 255 261 277 274 286 234 247 259 110 256 257 246 230 214 189 182 190 201 207 201 195 193 191 193 194 195 200 201 205 208 219 232 242 252 254 260 269
234 233 108 151 281 238 190 197 322 273 280 273 252 262 274 198 213 203 192 184 184 191 200 202 202 212 214 209 207 203 202 203 201 207 212 214 217 226 237 244 250 255 260 266
236 249 228 238 175 140 285 170 184 214 257 267 266 255 238 199 191 180 187 192 196 205 213 208 205 212 223 225 219 215 216 218 216 216 220 229 232 235 239 243 248 254 261 264
233 240 237 213 214 211 178 187 212 224 256 263 276 262 183 202 194 198 206 216 223 229 220 211 218 223 225 228 224 223 224 224 224 225 229 233 239 240 241 243 249 254 257 258
193 231 252 243 243 294 238 224 207 230 235 237 266 272 132 215 221 229 237 238 247 249 240 232 237 237 238 240 238 239 238 235 236 232 233 238 242 244 246 248 251 253 255 256
175 208 261 239 197 198 224 218 217 235 250 233 242 257 135 202 232 242 250 251 251 253 256 248 245 247 252 253 252 251 250 248 244 237 236 238 242 244 248 252 253 253 254 255
202 229 238 258 280 216 230 227 215 212 228 242 243 259 256 255 264 270 267 264 262 258 258 257 257 258 260 258 256 257 258 254 249 243 242 244 245 246 249 252 252 252 253 254
214 248 248 260 266 260 256 249 231 226 233 243 256 260 266 267 270 275 274 272 267 263 260 261 265 268 269 269 265 261 260 256 249 246 245 248 251 249 249 250 252 254 254 254
218 246 256 265 260 259 263 254 244 241 244 248 259 267 270 274 274 273 272 269 264 264 263 264 267 268 267 266 266 265 263 257 249 247 248 250 249 247 248 251 253 255 256 256
206 215 238 266 270 284 264 248 234 233 232 238 248 257 267 271 270 271 270 265 260 262 263 265 266 264 262 262 263 264 264 258 249 249 251 248 245 245 247 249 249 251 255 256
212 214 237 264 260 249 260 192 224 232 244 237 246 259 268 272 283 282 273 264 264 267 269 270 270 267 264 262 263 265 263 256 252 253 252 249 246 248 249 248 248 251 253 253
220 217 227 237 253 268 271 239 206 222 256 240 242 259 276 286 291 282 272 261 267 273 275 275 274 271 268 265 266 263 259 256 256 256 256 252 248 249 249 250 252 254 253 255
209 219 228 231 245 255 269 158 179 211 257 224 237 262 276 270 270 288 312 292 281 283 283 283 281 271 266 269 265 256 258 258 257 258 258 256 250 248 250 253 256 255 254 257
187 210 225 236 248 260 271 145 161 225 280 348 268 271 262 253 273 299 298 293 290 288 288 287 282 274 271 271 258 255 258 257 261 262 259 254 249 248 251 254 254 254 256 259
201 204 216 225 237 251 164 160 210 273 320 296 287 277 262 266 281 287 287 291 292 290 291 289 283 278 278 268 256 258 261 265 266 262 258 255 252 250 248 249 252 253 254 257
222 222 227 222 240 294 207 248 276 291 283 283 282 275 264 270 277 283 286 288 290 290 291 289 283 282 279 267 257 262 269 273 268 264 261 260 257 251 246 245 249 252 251 253
234 234 241 254 263 273 271 276 278 273 277 283 282 279 271 270 275 278 283 285 285 284 285 285 281 280 282 279 269 266 273 270 263 263 264 262 258 256 251 248 246 246 247 250
247 225 245 259 272 288 275 272 274 278 283 284 282 275 267 266 268 271 277 279 279 279 281 279 275 278 281 282 278 276 274 269 263 263 263 261 256 256 255 253 250 248 250 248
234 231 242 262 270 268 278 280 279 278 280 282 282 279 272 264 267 271 273 275 278 280 281 278 277 279 284 286 283 281 274 264 261 262 261 258 256 256 256 260 265 249 249 255
Height
1515 1514 1513 1513 1514 1512 1511 1509 1508 1508 1511 1510 1505 1502 1500 1500 1500 1500 1500 1500 1500 1500 1501 1502 1502 1503 1503 1505 1505 1506 1506 1507 1507 1507 1509 1510 1510 1511 1512 1512 1512 1512 1512 1512
1514 1515 1517 1517 1516 1514 1512 1509 1508 1510 1512 1510 1505 1501 1498 1498 1498 1498 1498 1498 1499 1499 1500 1500 1501 1502 1502 1504 1505 1506 1506 1507 1507 1507 1507 1508 1509 1509 1510 1510 1510 1510 1509 1509
1512 1517 1518 1517 1515 1514 1511 1510 1510 1511 1511 1510 1507 1496 1496 1496 1498 1498 1497 1498 1498 1498 1499 1499 1501 1501 1502 1503 1503 1504 1506 1506 1506 1506 1506 1507 1507 1507 1507 1507 1508 1507 1507 1507
1516 1518 1518 1515 1515 1513 1511 1514 1514 1513 1508 1505 1508 1499 1492 1494 1495 1495 1496 1497 1497 1498 1498 1499 1500 1501 1501 1502 1503 1504 1505 1505 1505 1505 1505 1506 1506 1506 1506 1505 1505 1505 1505 1505
1516 1519 1517 1515 1516 1516 1514 1516 1515 1512 1509 1506 1505 1502 1490 1493 1492 1492 1494 1495 1496 1497 1497 1498 1499 1500 1501 1501 1502 1503 1504 1504 1504 1504 1504 1504 1504 1504 1504 1504 1503 1503 1503 1503
1518 1520 1519 1517 1518 1518 1517 1515 1513 1511 1507 1505 1504 1502 1490 1487 1489 1490 1492 1494 1495 1495 1496 1497 1498 1500 1500 1501 1501 1502 1503 1503 1503 1503 1503 1503 1502 1502 1502 1502 1501 1501 1501 1500
1516 1518 1519 1519 1516 1517 1515 1510 1507 1505 1502 1497 1507 1503 1490 1486 1490 1491 1492 1493 1494 1494 1495 1496 1497 1498 1499 1500 1500 1501 1501 1501 1501 1501 1501 1501 1501 1500 1500 1500 1499 1499 1498 1497
1513 1513 1517 1518 1516 1514 1514 1511 1509 1505 1498 1494 1503 1497 1485 1489 1491 1492 1492 1492 1492 1493 1493 1494 1495 1496 1497 1498 1499 1499 1499 1499 1499 1499 1499 1499 1499 1498 1498 1498 1497 1496 1496 1495
1510 1511 1518 1518 1518 1516 1513 1512 1514 1510 1510 1505 1491 1489 1485 1488 1489 1490 1491 1491 1492 1492 1492 1493 1493 1494 1495 1496 1496 1497 1497 1497 1497 1496 1496 1496 1496 1496 1495 1495 1494 1493 1493 1492
1513 1514 1515 1518 1518 1518 1516 1514 1514 1511 1506 1496 1487 1486 1480 1482 1484 1487 1489 1490 1490 1491 1491 1491 1491 1492 1493 1493 1494 1494 1494 1494 1494 1493 1493 1493 1493 1492 1492 1491 1491 1490 1489 1488
1516 1514 1514 1516 1513 1510 1516 1516 1512 1509 1507 1500 1490 1480 1479 1481 1483 1485 1487 1488 1489 1490 1490 1490 1490 1490 1491 1491 1491 1491 1491 1491 1491 1490 1490 1489 1489 1489 1488 1488 1487 1487 1486 1485
1517 1514 1510 1510 1514 1515 1512 1509 1509 1507 1505 1505 1496 1484 1481 1483 1484 1485 1486 1487 1487 1488 1488 1488 1488 1488 1488 1488 1487 1487 1487 1487 1487 1487 1487 1486 1486 1485 1485 1484 1484 1483 1482 1481
1517 1514 1509 1504 1512 1516 1512 1510 1510 1508 1507 1503 1497 1483 1482 1483 1484 1485 1485 1485 1486 1486 1486 1486 1486 1485 1485 1485 1484 1484 1484 1484 1483 1483 1483 1482 1482 1482 1481 1480 1480 1479 1478 1477
1516 1512 1508 1500 1496 1503 1506 1507 1508 1508 1505 1497 1490 1479 1478 1480 1481 1482 1483 1483 1484 1484 1483 1483 1483 1482 1482 1481 1481 1481 1480 1480 1479 1479 1479 1478 1478 1478 1477 1476 1476 1475 1474 1473
1514 1509 1506 1504 1504 1504 1501 1500 1502 1502 1495 1492 1480 1479 1474 1477 1479 1480 1481 1480 1480 1480 1480 1480 1479 1479 1478 1477 1477 1477 1477 1476 1475 1475 1474 1474 1474 1473 1472 1472 1471 1470 1470 1469
1511 1508 1507 1504 1502 1502 1499 1493 1493 1492 1489 1485 1481 1476 1472 1475 1477 1477 1477 1477 1476 1476 1476 1475 1475 1474 1474 1474 1473 1473 1472 1472 1471 1470 1470 1469 1469 1468 1467 1467 1466 1465 1465 1464
1508 1507 1505 1497 1500 1500 1489 1479 1481 1481 1478 1478 1475 1469 1471 1473 1473 1473 1473 1473 1472 1472 1471 1471 1470 1470 1469 1469 1468 1468 1467 1467 1466 1465 1465 1464 1464 1463 1462 1462 1461 1460 1459 1458
1504 1503 1502 1498 1500 1495 1469 1474 1473 1473 1472 1472 1470 1469 1470 1470 1470 1470 1469 1468 1468 1468 1467 1466 1465 1465 1465 1464 1463 1463 1462 1461 1461 1460 1460 1459 1458 1458 1457 1456 1456 1455 1454 1453
1499 1499 1498 1496 1488 1475 1468 1470 1472 1472 1467 1466 1467 1467 1468 1468 1467 1465 1464 1464 1464 1464 1463 1462 1461 1461 1460 1459 1459 1458 1457 1456 1456 1455 1454 1454 1453 1452 1452 1451 1450 1450 1449 1448
1497 1497 1495 1491 1487 1475 1462 1469 1470 1471 1464 1464 1465 1465 1466 1466 1464 1461 1461 1461 1460 1460 1459 1458 1457 1456 1455 1455 1454 1453 1452 1451 1450 1450 1449 1449 1448 1447 1446 1446 1445 1444 1443 1442
1494 1494 1491 1485 1480 1466 1465 1468 1470 1468 1460 1463 1462 1462 1463 1463 1462 1461 1459 1458 1457 1456 1455 1454 1453 1452 1451 1450 1449 1448 1447 1446 1445 1445 1444 1443 1442 1442 1441 1440 1439 1438 1437 1435
1481 1482 1482 1479 1476 1467 1464 1467 1466 1461 1461 1460 1460 1460 1460 1459 1458 1457 1456 1455 1454 1453 1451 1450 1449 1448 1447 1446 1444 1443 1442 1441 1440 1439 1438 1437 1437 1436 1435 1434 1433 1432 1431 1429
1474 1470 1468 1468 1463 1461 1462 1461 1461 1460 1459 1458 1457 1457 1457 1455 1454 1453 1452 1451 1450 1449 1447 1446 1445 1443 1442 1441 1439 1438 1437 1436 1434 1433 1432 1431 1431 1430 1429 1427 1426 1425 1424 1423
1469 1470 1468 1465 1459 1459 1459 1458 1457 1457 1457 1455 1455 1454 1454 1452 1451 1450 1448 1447 1445 1444 1443 1441 1440 1438 1437 1435 1434 1433 1431 1430 1428 1427 1426 1425 1424 1423 1422 1421 1420 1419 1418 1417
1462 1465 1463 1459 1456 1456 1454 1454 1454 1453 1453 1452 1451 1450 1449 1447 1446 1445 1444 1442 1441 1439 1438 1436 1435 1433 1431 1430 1428 1427 1426 1424 1422 1421 1420 1419 1418 1417 1416 1415 1414 1413 1412 1411
1458 1458 1457 1452 1452 1452 1450 1450 1450 1449 1448 1447 1446 1444 1443 1442 1441 1440 1438 1437 1436 1434 1433 1431 1429 1428 1426 1424 1423 1421 1420 1418 1416 1415 1414 1413 1412 1410 1409 1408 1407 1406 1406 1405